Year,Month,Day,Hour,Minute,Value (Times are PST for insolation in W/m^2)
2013,06,24,00,00,0.00
2013,06,24,00,01,0.00
2013,06,24,00,02,0.00
2013,06,24,00,03,0.00
2013,06,24,00,04,0.00
2013,06,24,00,05,0.00
2013,06,24,00,06,0.00
2013,06,24,00,07,0.00
2013,06,24,00,08,0.00
2013,06,24,00,09,0.00
2013,06,24,00,10,0.00
2013,06,24,00,11,0.00
2013,06,24,00,12,0.00
2013,06,24,00,13,0.00
2013,06,24,00,14,0.00
2013,06,24,00,15,0.00
2013,06,24,00,16,0.00
2013,06,24,00,17,0.00
2013,06,24,00,18,0.00
2013,06,24,00,19,0.00
2013,06,24,00,20,0.00
2013,06,24,00,21,0.00
2013,06,24,00,22,0.00
2013,06,24,00,23,0.00
2013,06,24,00,24,0.00
2013,06,24,00,25,0.00
2013,06,24,00,26,0.00
2013,06,24,00,27,0.00
2013,06,24,00,28,0.00
2013,06,24,00,29,0.00
2013,06,24,00,30,0.00
2013,06,24,00,31,0.00
2013,06,24,00,32,0.00
2013,06,24,00,33,0.00
2013,06,24,00,34,0.00
2013,06,24,00,35,0.00
2013,06,24,00,36,0.00
2013,06,24,00,37,0.00
2013,06,24,00,38,0.00
2013,06,24,00,39,0.00
2013,06,24,00,40,0.00
2013,06,24,00,41,0.00
2013,06,24,00,42,0.00
2013,06,24,00,43,0.00
2013,06,24,00,44,0.00
2013,06,24,00,45,0.00
2013,06,24,00,46,0.00
2013,06,24,00,47,0.00
2013,06,24,00,48,0.00
2013,06,24,00,49,0.00
2013,06,24,00,50,0.00
2013,06,24,00,51,0.00
2013,06,24,00,52,0.00
2013,06,24,00,53,0.00
2013,06,24,00,54,0.00
2013,06,24,00,55,0.00
2013,06,24,00,56,0.00
2013,06,24,00,57,0.00
2013,06,24,00,58,0.00
2013,06,24,00,59,0.00
2013,06,24,01,00,0.00
2013,06,24,01,01,0.00
2013,06,24,01,02,0.00
2013,06,24,01,03,0.00
2013,06,24,01,04,0.00
2013,06,24,01,05,0.00
2013,06,24,01,06,0.00
2013,06,24,01,07,0.00
2013,06,24,01,08,0.00
2013,06,24,01,09,0.00
2013,06,24,01,10,0.00
2013,06,24,01,11,0.00
2013,06,24,01,12,0.00
2013,06,24,01,13,0.00
2013,06,24,01,14,0.00
2013,06,24,01,15,0.00
2013,06,24,01,16,0.00
2013,06,24,01,17,0.00
2013,06,24,01,18,0.00
2013,06,24,01,19,0.00
2013,06,24,01,20,0.00
2013,06,24,01,21,0.00
2013,06,24,01,22,0.00
2013,06,24,01,23,0.00
2013,06,24,01,24,0.00
2013,06,24,01,25,0.00
2013,06,24,01,26,0.00
2013,06,24,01,27,0.00
2013,06,24,01,28,0.00
2013,06,24,01,29,0.00
2013,06,24,01,30,0.00
2013,06,24,01,31,0.00
2013,06,24,01,32,0.00
2013,06,24,01,33,0.00
2013,06,24,01,34,0.00
2013,06,24,01,35,0.00
2013,06,24,01,36,0.00
2013,06,24,01,37,0.00
2013,06,24,01,38,0.00
2013,06,24,01,39,0.00
2013,06,24,01,40,0.00
2013,06,24,01,41,0.00
2013,06,24,01,42,0.00
2013,06,24,01,43,0.00
2013,06,24,01,44,0.00
2013,06,24,01,45,0.00
2013,06,24,01,46,0.00
2013,06,24,01,47,0.00
2013,06,24,01,48,0.00
2013,06,24,01,49,0.00
2013,06,24,01,50,0.00
2013,06,24,01,51,0.00
2013,06,24,01,52,0.00
2013,06,24,01,53,0.00
2013,06,24,01,54,0.00
2013,06,24,01,55,0.00
2013,06,24,01,56,0.00
2013,06,24,01,57,0.00
2013,06,24,01,58,0.00
2013,06,24,01,59,0.00
2013,06,24,02,00,0.00
2013,06,24,02,01,0.00
2013,06,24,02,02,0.00
2013,06,24,02,03,0.00
2013,06,24,02,04,0.00
2013,06,24,02,05,0.00
2013,06,24,02,06,0.00
2013,06,24,02,07,0.00
2013,06,24,02,08,0.00
2013,06,24,02,09,0.00
2013,06,24,02,10,0.00
2013,06,24,02,11,0.00
2013,06,24,02,12,0.00
2013,06,24,02,13,0.00
2013,06,24,02,14,0.00
2013,06,24,02,15,0.00
2013,06,24,02,16,0.00
2013,06,24,02,17,0.00
2013,06,24,02,18,0.00
2013,06,24,02,19,0.00
2013,06,24,02,20,0.00
2013,06,24,02,21,0.00
2013,06,24,02,22,0.00
2013,06,24,02,23,0.00
2013,06,24,02,24,0.00
2013,06,24,02,25,0.00
2013,06,24,02,26,0.00
2013,06,24,02,27,0.00
2013,06,24,02,28,0.00
2013,06,24,02,29,0.00
2013,06,24,02,30,0.00
2013,06,24,02,31,0.00
2013,06,24,02,32,0.00
2013,06,24,02,33,0.00
2013,06,24,02,34,0.00
2013,06,24,02,35,0.00
2013,06,24,02,36,0.00
2013,06,24,02,37,0.00
2013,06,24,02,38,0.00
2013,06,24,02,39,0.00
2013,06,24,02,40,0.00
2013,06,24,02,41,0.00
2013,06,24,02,42,0.00
2013,06,24,02,43,0.00
2013,06,24,02,44,0.00
2013,06,24,02,45,0.00
2013,06,24,02,46,0.00
2013,06,24,02,47,0.00
2013,06,24,02,48,0.00
2013,06,24,02,49,0.00
2013,06,24,02,50,0.00
2013,06,24,02,51,0.00
2013,06,24,02,52,0.00
2013,06,24,02,53,0.00
2013,06,24,02,54,0.00
2013,06,24,02,55,0.00
2013,06,24,02,56,0.00
2013,06,24,02,57,0.00
2013,06,24,02,58,0.00
2013,06,24,02,59,0.00
2013,06,24,03,00,0.00
2013,06,24,03,01,0.00
2013,06,24,03,02,0.00
2013,06,24,03,03,0.00
2013,06,24,03,06,0.00
2013,06,24,03,07,0.00
2013,06,24,03,08,0.00
2013,06,24,03,09,0.00
2013,06,24,03,10,0.00
2013,06,24,03,11,0.00
2013,06,24,03,12,0.00
2013,06,24,03,13,0.00
2013,06,24,03,14,0.00
2013,06,24,03,15,0.00
2013,06,24,03,16,0.00
2013,06,24,03,17,0.00
2013,06,24,03,18,0.00
2013,06,24,03,19,0.00
2013,06,24,03,20,0.00
2013,06,24,03,21,0.00
2013,06,24,03,22,0.00
2013,06,24,03,23,0.00
2013,06,24,03,24,0.00
2013,06,24,03,25,0.00
2013,06,24,03,26,0.00
2013,06,24,03,27,0.00
2013,06,24,03,28,0.00
2013,06,24,03,29,0.00
2013,06,24,03,30,0.00
2013,06,24,03,31,0.00
2013,06,24,03,32,0.00
2013,06,24,03,33,0.00
2013,06,24,03,34,0.00
2013,06,24,03,35,0.00
2013,06,24,03,36,0.00
2013,06,24,03,37,0.00
2013,06,24,03,38,0.00
2013,06,24,03,39,0.00
2013,06,24,03,40,0.00
2013,06,24,03,41,0.00
2013,06,24,03,42,0.00
2013,06,24,03,43,0.00
2013,06,24,03,44,0.00
2013,06,24,03,45,0.00
2013,06,24,03,46,0.00
2013,06,24,03,47,0.00
2013,06,24,03,48,0.00
2013,06,24,03,49,0.00
2013,06,24,03,50,0.00
2013,06,24,03,51,0.00
2013,06,24,03,52,0.00
2013,06,24,03,53,0.00
2013,06,24,03,54,0.00
2013,06,24,03,55,0.00
2013,06,24,03,56,0.00
2013,06,24,03,57,0.00
2013,06,24,03,58,0.00
2013,06,24,03,59,0.00
2013,06,24,04,00,0.00
2013,06,24,04,01,0.00
2013,06,24,04,02,0.00
2013,06,24,04,03,0.00
2013,06,24,04,04,0.00
2013,06,24,04,05,0.00
2013,06,24,04,06,0.00
2013,06,24,04,07,0.00
2013,06,24,04,08,0.00
2013,06,24,04,09,0.00
2013,06,24,04,10,0.00
2013,06,24,04,11,0.00
2013,06,24,04,12,0.00
2013,06,24,04,13,0.00
2013,06,24,04,14,0.00
2013,06,24,04,15,0.00
2013,06,24,04,16,0.00
2013,06,24,04,17,0.00
2013,06,24,04,18,0.00
2013,06,24,04,19,0.00
2013,06,24,04,20,0.00
2013,06,24,04,21,0.00
2013,06,24,04,22,0.00
2013,06,24,04,23,0.00
2013,06,24,04,24,0.00
2013,06,24,04,25,0.00
2013,06,24,04,26,0.00
2013,06,24,04,27,0.00
2013,06,24,04,28,0.00
2013,06,24,04,29,0.00
2013,06,24,04,30,0.00
2013,06,24,04,31,0.00
2013,06,24,04,32,0.00
2013,06,24,04,33,0.00
2013,06,24,04,34,0.00
2013,06,24,04,35,0.00
2013,06,24,04,36,0.00
2013,06,24,04,37,0.00
2013,06,24,04,38,0.00
2013,06,24,04,39,0.00
2013,06,24,04,40,0.00
2013,06,24,04,41,0.00
2013,06,24,04,42,0.00
2013,06,24,04,43,0.00
2013,06,24,04,44,0.00
2013,06,24,04,45,0.00
2013,06,24,04,46,0.00
2013,06,24,04,47,0.00
2013,06,24,04,48,0.00
2013,06,24,04,49,0.00
2013,06,24,04,50,0.00
2013,06,24,04,51,0.00
2013,06,24,04,52,0.00
2013,06,24,04,53,0.00
2013,06,24,04,54,0.00
2013,06,24,04,55,0.00
2013,06,24,04,56,0.00
2013,06,24,04,57,0.00
2013,06,24,04,58,0.00
2013,06,24,04,59,0.00
2013,06,24,05,00,0.00
2013,06,24,05,01,0.00
2013,06,24,05,02,0.00
2013,06,24,05,03,0.00
2013,06,24,05,04,0.00
2013,06,24,05,05,0.00
2013,06,24,05,06,0.00
2013,06,24,05,07,0.00
2013,06,24,05,08,0.00
2013,06,24,05,09,0.00
2013,06,24,05,10,0.00
2013,06,24,05,11,0.00
2013,06,24,05,12,0.00
2013,06,24,05,13,0.00
2013,06,24,05,14,0.00
2013,06,24,05,15,0.00
2013,06,24,05,16,0.00
2013,06,24,05,17,0.00
2013,06,24,05,18,0.00
2013,06,24,05,19,0.00
2013,06,24,05,20,0.00
2013,06,24,05,21,0.00
2013,06,24,05,22,0.00
2013,06,24,05,23,0.00
2013,06,24,05,24,0.00
2013,06,24,05,25,0.00
2013,06,24,05,26,0.00
2013,06,24,05,27,0.00
2013,06,24,05,28,0.00
2013,06,24,05,29,0.00
2013,06,24,05,30,0.00
2013,06,24,05,31,0.00
2013,06,24,05,32,0.00
2013,06,24,05,33,0.00
2013,06,24,05,34,0.00
2013,06,24,05,35,0.00
2013,06,24,05,36,0.00
2013,06,24,05,37,0.00
2013,06,24,05,38,0.00
2013,06,24,05,39,0.00
2013,06,24,05,40,0.00
2013,06,24,05,41,0.00
2013,06,24,05,42,0.00
2013,06,24,05,43,0.00
2013,06,24,05,44,0.00
2013,06,24,05,45,0.00
2013,06,24,05,46,0.00
2013,06,24,05,47,0.00
2013,06,24,05,48,0.00
2013,06,24,05,49,0.00
2013,06,24,05,50,0.00
2013,06,24,05,51,0.00
2013,06,24,05,52,0.00
2013,06,24,05,53,1.20
2013,06,24,05,54,5.00
2013,06,24,05,55,5.00
2013,06,24,05,56,5.00
2013,06,24,05,57,5.00
2013,06,24,05,58,2.90
2013,06,24,05,59,0.00
2013,06,24,06,00,0.00
2013,06,24,06,01,0.00
2013,06,24,06,02,0.00
2013,06,24,06,03,0.00
2013,06,24,06,04,0.00
2013,06,24,06,05,0.00
2013,06,24,06,06,0.00
2013,06,24,06,07,0.00
2013,06,24,06,08,0.00
2013,06,24,06,09,0.00
2013,06,24,06,10,0.00
2013,06,24,06,11,0.00
2013,06,24,06,12,0.30
2013,06,24,06,13,5.00
2013,06,24,06,14,5.00
2013,06,24,06,15,3.80
2013,06,24,06,16,0.00
2013,06,24,06,17,0.00
2013,06,24,06,18,0.00
2013,06,24,06,19,0.00
2013,06,24,06,20,2.00
2013,06,24,06,21,5.90
2013,06,24,06,22,7.90
2013,06,24,06,23,10.60
2013,06,24,06,24,12.00
2013,06,24,06,25,12.00
2013,06,24,06,26,12.00
2013,06,24,06,27,12.00
2013,06,24,06,28,12.00
2013,06,24,06,29,11.20
2013,06,24,06,30,11.00
2013,06,24,06,31,11.00
2013,06,24,06,32,9.10
2013,06,24,06,33,9.00
2013,06,24,06,34,9.00
2013,06,24,06,35,8.80
2013,06,24,06,36,6.70
2013,06,24,06,37,5.00
2013,06,24,06,38,5.00
2013,06,24,06,39,3.80
2013,06,24,06,40,0.00
2013,06,24,06,41,0.00
2013,06,24,06,42,0.00
2013,06,24,06,43,2.00
2013,06,24,06,44,5.00
2013,06,24,06,45,5.00
2013,06,24,06,46,5.00
2013,06,24,06,47,5.00
2013,06,24,06,48,6.30
2013,06,24,06,49,7.00
2013,06,24,06,50,8.40
2013,06,24,06,51,9.00
2013,06,24,06,52,10.60
2013,06,24,06,53,13.40
2013,06,24,06,54,17.40
2013,06,24,06,55,20.70
2013,06,24,06,56,19.10
2013,06,24,06,57,22.90
2013,06,24,06,58,21.40
2013,06,24,06,59,25.00
2013,06,24,07,00,25.20
2013,06,24,07,01,26.40
2013,06,24,07,02,29.00
2013,06,24,07,03,32.90
2013,06,24,07,04,34.40
2013,06,24,07,05,33.70
2013,06,24,07,06,35.80
2013,06,24,07,07,37.00
2013,06,24,07,08,34.50
2013,06,24,07,09,30.90
2013,06,24,07,10,31.20
2013,06,24,07,11,30.80
2013,06,24,07,12,27.40
2013,06,24,07,13,25.30
2013,06,24,07,14,23.60
2013,06,24,07,15,19.80
2013,06,24,07,16,20.70
2013,06,24,07,17,22.80
2013,06,24,07,18,25.80
2013,06,24,07,19,25.00
2013,06,24,07,20,22.90
2013,06,24,07,21,21.00
2013,06,24,07,22,21.00
2013,06,24,07,23,21.00
2013,06,24,07,24,21.40
2013,06,24,07,25,21.90
2013,06,24,07,26,19.00
2013,06,24,07,27,19.00
2013,06,24,07,28,20.50
2013,06,24,07,29,26.10
2013,06,24,07,30,32.40
2013,06,24,07,31,36.00
2013,06,24,07,32,37.00
2013,06,24,07,33,39.90
2013,06,24,07,34,43.20
2013,06,24,07,35,46.10
2013,06,24,07,36,47.00
2013,06,24,07,37,46.20
2013,06,24,07,38,46.80
2013,06,24,07,39,48.60
2013,06,24,07,40,47.30
2013,06,24,07,41,48.80
2013,06,24,07,42,53.80
2013,06,24,07,43,54.20
2013,06,24,07,44,58.20
2013,06,24,07,45,61.50
2013,06,24,07,46,70.00
2013,06,24,07,47,68.90
2013,06,24,07,48,65.00
2013,06,24,07,49,65.00
2013,06,24,07,50,65.70
2013,06,24,07,51,67.00
2013,06,24,07,52,69.20
2013,06,24,07,53,72.00
2013,06,24,07,54,72.00
2013,06,24,07,55,69.20
2013,06,24,07,56,64.60
2013,06,24,07,57,63.00
2013,06,24,07,58,61.00
2013,06,24,07,59,61.40
2013,06,24,08,00,65.80
2013,06,24,08,01,74.90
2013,06,24,08,02,82.60
2013,06,24,08,03,85.70
2013,06,24,08,04,89.60
2013,06,24,08,05,86.20
2013,06,24,08,06,84.00
2013,06,24,08,07,88.30
2013,06,24,08,08,91.00
2013,06,24,08,09,91.00
2013,06,24,08,10,90.00
2013,06,24,08,11,86.00
2013,06,24,08,12,82.60
2013,06,24,08,13,72.40
2013,06,24,08,14,69.30
2013,06,24,08,15,71.60
2013,06,24,08,16,74.00
2013,06,24,08,17,75.30
2013,06,24,08,18,77.00
2013,06,24,08,19,83.10
2013,06,24,08,20,103.10
2013,06,24,08,21,113.30
2013,06,24,08,22,113.00
2013,06,24,08,23,110.10
2013,06,24,08,24,97.90
2013,06,24,08,25,95.00
2013,06,24,08,26,91.40
2013,06,24,08,27,96.40
2013,06,24,08,28,97.00
2013,06,24,08,29,84.70
2013,06,24,08,30,90.90
2013,06,24,08,31,90.00
2013,06,24,08,32,90.20
2013,06,24,08,33,90.40
2013,06,24,08,34,86.90
2013,06,24,08,35,83.00
2013,06,24,08,36,88.70
2013,06,24,08,37,104.80
2013,06,24,08,38,109.40
2013,06,24,08,39,107.90
2013,06,24,08,40,112.50
2013,06,24,08,41,122.30
2013,06,24,08,42,135.70
2013,06,24,08,43,149.10
2013,06,24,08,44,162.60
2013,06,24,08,45,169.80
2013,06,24,08,46,169.50
2013,06,24,08,47,163.50
2013,06,24,08,48,153.20
2013,06,24,08,49,139.10
2013,06,24,08,50,128.10
2013,06,24,08,51,123.40
2013,06,24,08,52,118.10
2013,06,24,08,53,113.50
2013,06,24,08,54,108.50
2013,06,24,08,55,102.10
2013,06,24,08,56,88.00
2013,06,24,08,57,76.00
2013,06,24,08,58,77.50
2013,06,24,08,59,81.00
2013,06,24,09,00,80.30
2013,06,24,09,01,77.90
2013,06,24,09,02,76.40
2013,06,24,09,03,80.00
2013,06,24,09,04,84.60
2013,06,24,09,05,86.00
2013,06,24,09,06,86.00
2013,06,24,09,07,86.00
2013,06,24,09,08,84.60
2013,06,24,09,09,81.80
2013,06,24,09,10,79.50
2013,06,24,09,11,80.60
2013,06,24,09,12,81.00
2013,06,24,09,13,81.00
2013,06,24,09,14,89.60
2013,06,24,09,15,93.00
2013,06,24,09,16,95.10
2013,06,24,09,17,97.10
2013,06,24,09,18,98.00
2013,06,24,09,19,97.80
2013,06,24,09,20,96.00
2013,06,24,09,21,92.10
2013,06,24,09,22,88.10
2013,06,24,09,23,82.90
2013,06,24,09,24,80.20
2013,06,24,09,25,78.20
2013,06,24,09,26,77.00
2013,06,24,09,27,78.00
2013,06,24,09,28,80.20
2013,06,24,09,29,82.80
2013,06,24,09,30,86.60
2013,06,24,09,31,91.40
2013,06,24,09,32,95.80
2013,06,24,09,33,102.50
2013,06,24,09,34,109.60
2013,06,24,09,35,119.50
2013,06,24,09,36,130.40
2013,06,24,09,37,132.00
2013,06,24,09,38,132.00
2013,06,24,09,39,186.10
2013,06,24,09,40,207.50
2013,06,24,09,41,222.60
2013,06,24,09,42,240.20
2013,06,24,09,43,264.00
2013,06,24,09,44,287.60
2013,06,24,09,45,295.00
2013,06,24,09,46,294.60
2013,06,24,09,47,294.00
2013,06,24,09,48,289.00
2013,06,24,09,49,279.90
2013,06,24,09,50,273.40
2013,06,24,09,51,267.10
2013,06,24,09,52,259.80
2013,06,24,09,53,253.10
2013,06,24,09,54,248.90
2013,06,24,09,55,244.50
2013,06,24,09,56,243.00
2013,06,24,09,57,247.00
2013,06,24,09,58,256.50
2013,06,24,09,59,267.90
2013,06,24,10,00,282.30
2013,06,24,10,01,293.50
2013,06,24,10,02,294.50
2013,06,24,10,03,304.00
2013,06,24,10,04,304.60
2013,06,24,10,05,308.20
2013,06,24,10,06,309.40
2013,06,24,10,07,312.10
2013,06,24,10,08,316.50
2013,06,24,10,09,317.50
2013,06,24,10,10,310.20
2013,06,24,10,11,302.90
2013,06,24,10,12,299.00
2013,06,24,10,13,290.00
2013,06,24,10,14,275.80
2013,06,24,10,15,269.00
2013,06,24,10,16,262.50
2013,06,24,10,17,258.60
2013,06,24,10,18,258.00
2013,06,24,10,19,254.20
2013,06,24,10,20,251.30
2013,06,24,10,21,239.10
2013,06,24,10,22,216.30
2013,06,24,10,23,211.20
2013,06,24,10,24,212.90
2013,06,24,10,25,213.20
2013,06,24,10,26,216.90
2013,06,24,10,27,207.00
2013,06,24,10,28,202.60
2013,06,24,10,29,185.80
2013,06,24,10,30,188.50
2013,06,24,10,31,187.30
2013,06,24,10,32,180.40
2013,06,24,10,33,177.00
2013,06,24,10,34,174.00
2013,06,24,10,35,175.90
2013,06,24,10,36,178.00
2013,06,24,10,37,185.70
2013,06,24,10,38,192.00
2013,06,24,10,39,192.00
2013,06,24,10,40,194.10
2013,06,24,10,41,196.40
2013,06,24,10,42,203.80
2013,06,24,10,43,215.60
2013,06,24,10,44,231.50
2013,06,24,10,45,245.90
2013,06,24,10,46,260.70
2013,06,24,10,47,283.00
2013,06,24,10,48,284.20
2013,06,24,10,49,308.80
2013,06,24,10,50,316.00
2013,06,24,10,51,318.20
2013,06,24,10,52,327.40
2013,06,24,10,53,328.50
2013,06,24,10,54,326.40
2013,06,24,10,55,325.00
2013,06,24,10,56,325.00
2013,06,24,10,57,325.00
2013,06,24,10,58,325.00
2013,06,24,10,59,326.00
2013,06,24,11,00,328.60
2013,06,24,11,01,330.00
2013,06,24,11,02,331.30
2013,06,24,11,03,332.00
2013,06,24,11,04,330.60
2013,06,24,11,05,327.80
2013,06,24,11,06,323.00
2013,06,24,11,07,318.60
2013,06,24,11,08,313.80
2013,06,24,11,09,311.20
2013,06,24,11,10,309.00
2013,06,24,11,11,305.80
2013,06,24,11,12,301.70
2013,06,24,11,13,298.40
2013,06,24,11,14,294.40
2013,06,24,11,15,291.60
2013,06,24,11,16,289.50
2013,06,24,11,17,288.00
2013,06,24,11,18,288.00
2013,06,24,11,19,288.80
2013,06,24,11,20,290.90
2013,06,24,11,21,293.40
2013,06,24,11,22,296.00
2013,06,24,11,23,298.20
2013,06,24,11,24,300.20
2013,06,24,11,25,301.60
2013,06,24,11,26,303.40
2013,06,24,11,27,304.00
2013,06,24,11,28,304.00
2013,06,24,11,29,304.00
2013,06,24,11,30,304.00
2013,06,24,11,31,304.00
2013,06,24,11,32,302.20
2013,06,24,11,33,301.00
2013,06,24,11,34,294.80
2013,06,24,11,35,289.50
2013,06,24,11,36,284.00
2013,06,24,11,37,277.10
2013,06,24,11,38,270.30
2013,06,24,11,39,263.70
2013,06,24,11,40,259.10
2013,06,24,11,41,254.60
2013,06,24,11,42,247.90
2013,06,24,11,43,242.00
2013,06,24,11,44,237.60
2013,06,24,11,45,234.10
2013,06,24,11,46,230.40
2013,06,24,11,47,226.60
2013,06,24,11,48,223.70
2013,06,24,11,49,221.70
2013,06,24,11,50,221.00
2013,06,24,11,51,220.30
2013,06,24,11,52,218.40
2013,06,24,11,53,225.20
2013,06,24,11,54,231.20
2013,06,24,11,55,238.30
2013,06,24,11,56,244.00
2013,06,24,11,57,248.00
2013,06,24,11,58,248.20
2013,06,24,11,59,250.00
2013,06,24,12,00,250.00
2013,06,24,12,01,249.50
2013,06,24,12,02,248.00
2013,06,24,12,03,246.80
2013,06,24,12,04,243.60
2013,06,24,12,05,241.40
2013,06,24,12,06,239.00
2013,06,24,12,07,235.90
2013,06,24,12,08,230.50
2013,06,24,12,09,227.90
2013,06,24,12,10,227.00
2013,06,24,12,11,228.30
2013,06,24,12,12,229.60
2013,06,24,12,13,232.80
2013,06,24,12,14,236.20
2013,06,24,12,15,242.50
2013,06,24,12,16,244.00
2013,06,24,12,17,263.50
2013,06,24,12,18,280.30
2013,06,24,12,19,296.20
2013,06,24,12,20,315.70
2013,06,24,12,21,330.50
2013,06,24,12,22,344.50
2013,06,24,12,23,354.80
2013,06,24,12,24,363.90
2013,06,24,12,25,372.20
2013,06,24,12,26,378.70
2013,06,24,12,27,390.60
2013,06,24,12,28,401.00
2013,06,24,12,29,417.60
2013,06,24,12,30,444.00
2013,06,24,12,31,453.30
2013,06,24,12,32,459.20
2013,06,24,12,33,464.00
2013,06,24,12,34,461.50
2013,06,24,12,35,454.50
2013,06,24,12,36,455.50
2013,06,24,12,37,465.20
2013,06,24,12,38,459.20
2013,06,24,12,39,419.60
2013,06,24,12,40,389.20
2013,06,24,12,41,364.30
2013,06,24,12,42,345.90
2013,06,24,12,43,328.50
2013,06,24,12,44,317.10
2013,06,24,12,45,308.00
2013,06,24,12,46,300.90
2013,06,24,12,47,293.60
2013,06,24,12,48,287.80
2013,06,24,12,49,287.30
2013,06,24,12,50,289.80
2013,06,24,12,51,295.20
2013,06,24,12,52,297.00
2013,06,24,12,53,297.00
2013,06,24,12,54,296.00
2013,06,24,12,55,293.40
2013,06,24,12,56,289.10
2013,06,24,12,57,284.60
2013,06,24,12,58,279.80
2013,06,24,12,59,273.80
2013,06,24,13,00,269.80
2013,06,24,13,01,267.50
2013,06,24,13,02,265.30
2013,06,24,13,03,266.80
2013,06,24,13,04,270.80
2013,06,24,13,05,271.00
2013,06,24,13,06,283.20
2013,06,24,13,07,288.70
2013,06,24,13,08,295.90
2013,06,24,13,09,301.50
2013,06,24,13,10,305.00
2013,06,24,13,11,310.50
2013,06,24,13,12,318.10
2013,06,24,13,13,324.20
2013,06,24,13,14,328.20
2013,06,24,13,15,329.60
2013,06,24,13,16,329.00
2013,06,24,13,17,328.10
2013,06,24,13,18,325.90
2013,06,24,13,19,326.20
2013,06,24,13,20,328.30
2013,06,24,13,21,331.10
2013,06,24,13,22,336.20
2013,06,24,13,23,341.80
2013,06,24,13,24,348.50
2013,06,24,13,25,358.40
2013,06,24,13,26,367.60
2013,06,24,13,27,372.60
2013,06,24,13,28,374.00
2013,06,24,13,29,374.00
2013,06,24,13,30,373.90
2013,06,24,13,31,373.00
2013,06,24,13,32,373.00
2013,06,24,13,33,373.00
2013,06,24,13,34,373.20
2013,06,24,13,35,375.80
2013,06,24,13,36,383.50
2013,06,24,13,37,394.40
2013,06,24,13,38,403.10
2013,06,24,13,39,406.00
2013,06,24,13,40,405.10
2013,06,24,13,41,403.50
2013,06,24,13,42,403.00
2013,06,24,13,43,403.60
2013,06,24,13,44,408.50
2013,06,24,13,45,415.90
2013,06,24,13,46,419.50
2013,06,24,13,47,420.00
2013,06,24,13,48,417.50
2013,06,24,13,49,411.60
2013,06,24,13,50,404.70
2013,06,24,13,51,396.40
2013,06,24,13,52,390.00
2013,06,24,13,53,386.50
2013,06,24,13,54,377.10
2013,06,24,13,55,367.60
2013,06,24,13,56,358.60
2013,06,24,13,57,351.90
2013,06,24,13,58,346.50
2013,06,24,13,59,341.20
2013,06,24,14,00,336.50
2013,06,24,14,01,332.50
2013,06,24,14,02,328.70
2013,06,24,14,03,325.00
2013,06,24,14,04,322.50
2013,06,24,14,05,319.80
2013,06,24,14,06,318.00
2013,06,24,14,07,316.70
2013,06,24,14,08,315.40
2013,06,24,14,09,312.00
2013,06,24,14,10,311.00
2013,06,24,14,11,305.40
2013,06,24,14,12,301.50
2013,06,24,14,13,297.40
2013,06,24,14,14,297.00
2013,06,24,14,15,299.00
2013,06,24,14,16,301.20
2013,06,24,14,17,306.50
2013,06,24,14,18,310.00
2013,06,24,14,19,318.10
2013,06,24,14,20,329.60
2013,06,24,14,21,341.60
2013,06,24,14,22,352.20
2013,06,24,14,23,358.00
2013,06,24,14,24,361.60
2013,06,24,14,25,364.00
2013,06,24,14,26,363.00
2013,06,24,14,27,360.90
2013,06,24,14,28,359.40
2013,06,24,14,29,357.80
2013,06,24,14,30,357.00
2013,06,24,14,31,355.60
2013,06,24,14,32,357.90
2013,06,24,14,33,357.40
2013,06,24,14,34,351.00
2013,06,24,14,35,346.40
2013,06,24,14,36,343.30
2013,06,24,14,37,338.20
2013,06,24,14,38,334.00
2013,06,24,14,39,334.40
2013,06,24,14,40,342.10
2013,06,24,14,41,353.40
2013,06,24,14,42,360.50
2013,06,24,14,43,366.00
2013,06,24,14,44,364.80
2013,06,24,14,45,361.40
2013,06,24,14,46,362.30
2013,06,24,14,47,363.60
2013,06,24,14,48,356.60
2013,06,24,14,49,346.10
2013,06,24,14,50,334.00
2013,06,24,14,51,325.90
2013,06,24,14,52,321.20
2013,06,24,14,53,322.00
2013,06,24,14,54,322.30
2013,06,24,14,55,320.50
2013,06,24,14,56,320.00
2013,06,24,14,57,304.80
2013,06,24,14,58,295.20
2013,06,24,14,59,282.30
2013,06,24,15,00,267.70
2013,06,24,15,01,251.20
2013,06,24,15,02,239.00
2013,06,24,15,03,239.00
2013,06,24,15,04,236.90
2013,06,24,15,05,225.80
2013,06,24,15,06,230.10
2013,06,24,15,07,235.80
2013,06,24,15,08,245.20
2013,06,24,15,09,257.90
2013,06,24,15,10,273.40
2013,06,24,15,11,291.10
2013,06,24,15,12,307.90
2013,06,24,15,13,317.80
2013,06,24,15,14,321.20
2013,06,24,15,15,320.80
2013,06,24,15,16,316.80
2013,06,24,15,17,313.60
2013,06,24,15,18,315.10
2013,06,24,15,19,321.20
2013,06,24,15,20,331.80
2013,06,24,15,21,332.30
2013,06,24,15,22,340.10
2013,06,24,15,23,341.00
2013,06,24,15,24,360.00
2013,06,24,15,25,351.80
2013,06,24,15,26,349.00
2013,06,24,15,27,352.50
2013,06,24,15,28,336.20
2013,06,24,15,29,322.80
2013,06,24,15,30,313.70
2013,06,24,15,31,307.40
2013,06,24,15,32,306.00
2013,06,24,15,33,308.00
2013,06,24,15,34,317.30
2013,06,24,15,35,326.90
2013,06,24,15,36,330.60
2013,06,24,15,37,332.00
2013,06,24,15,38,330.80
2013,06,24,15,39,328.10
2013,06,24,15,40,323.80
2013,06,24,15,41,317.80
2013,06,24,15,42,313.60
2013,06,24,15,43,311.30
2013,06,24,15,44,309.30
2013,06,24,15,45,310.80
2013,06,24,15,46,315.50
2013,06,24,15,47,320.00
2013,06,24,15,48,320.90
2013,06,24,15,49,329.50
2013,06,24,15,50,335.40
2013,06,24,15,51,344.10
2013,06,24,15,52,346.80
2013,06,24,15,53,342.40
2013,06,24,15,54,340.40
2013,06,24,15,55,339.70
2013,06,24,15,56,341.00
2013,06,24,15,57,340.20
2013,06,24,15,58,339.00
2013,06,24,15,59,341.20
2013,06,24,16,00,347.10
2013,06,24,16,01,353.00
2013,06,24,16,02,353.70
2013,06,24,16,03,350.90
2013,06,24,16,04,346.50
2013,06,24,16,05,342.00
2013,06,24,16,06,341.00
2013,06,24,16,07,341.00
2013,06,24,16,08,341.00
2013,06,24,16,09,345.70
2013,06,24,16,10,351.50
2013,06,24,16,11,341.70
2013,06,24,16,12,329.50
2013,06,24,16,13,323.60
2013,06,24,16,14,313.10
2013,06,24,16,15,298.50
2013,06,24,16,16,284.60
2013,06,24,16,17,276.00
2013,06,24,16,18,274.60
2013,06,24,16,19,272.00
2013,06,24,16,20,266.40
2013,06,24,16,21,255.60
2013,06,24,16,22,245.60
2013,06,24,16,23,233.50
2013,06,24,16,24,222.20
2013,06,24,16,25,215.40
2013,06,24,16,26,210.60
2013,06,24,16,27,202.00
2013,06,24,16,28,189.20
2013,06,24,16,29,176.40
2013,06,24,16,30,164.60
2013,06,24,16,31,155.80
2013,06,24,16,32,155.00
2013,06,24,16,33,143.80
2013,06,24,16,34,139.00
2013,06,24,16,35,138.60
2013,06,24,16,36,134.90
2013,06,24,16,37,133.20
2013,06,24,16,38,129.40
2013,06,24,16,39,125.20
2013,06,24,16,40,120.00
2013,06,24,16,41,120.00
2013,06,24,16,42,111.60
2013,06,24,16,43,98.00
2013,06,24,16,44,95.00
2013,06,24,16,45,90.10
2013,06,24,16,46,84.80
2013,06,24,16,47,83.40
2013,06,24,16,48,83.00
2013,06,24,16,49,83.00
2013,06,24,16,50,81.60
2013,06,24,16,51,78.00
2013,06,24,16,52,76.20
2013,06,24,16,53,72.60
2013,06,24,16,54,70.20
2013,06,24,16,55,67.20
2013,06,24,16,56,67.00
2013,06,24,16,57,67.10
2013,06,24,16,58,69.10
2013,06,24,16,59,70.00
2013,06,24,17,00,70.40
2013,06,24,17,01,72.00
2013,06,24,17,02,72.00
2013,06,24,17,03,72.00
2013,06,24,17,04,71.30
2013,06,24,17,05,70.00
2013,06,24,17,06,70.00
2013,06,24,17,07,70.00
2013,06,24,17,08,72.20
2013,06,24,17,09,75.70
2013,06,24,17,10,78.20
2013,06,24,17,11,81.60
2013,06,24,17,12,83.70
2013,06,24,17,13,84.00
2013,06,24,17,14,85.50
2013,06,24,17,15,86.00
2013,06,24,17,16,86.00
2013,06,24,17,17,87.70
2013,06,24,17,18,89.80
2013,06,24,17,19,93.10